Orbital Elements at Epoch 2459000.5 (2020-May-31.0) TDB
Reference: JPL 23 (heliocentric ecliptic J2000)
Element | Value | Uncertainty (1-sigma) | Units |
e | .1190660976603476 | 4.0582e-08 | |
a | 2.278485292599719 | 7.3693e-09 | au |
q | 2.007194940233375 | 9.1871e-08 | au |
i | 4.205992534804436 | 4.2984e-06 | deg |
node | 25.77848671821531 | 5.0835e-05 | deg |
peri | 176.028894636845 | 5.3118e-05 | deg |
M | 59.00659568297863 | 1.6224e-05 | deg |
tp | 2458794.595503977919 (2019-Nov-07.09550398) | 5.6449e-05 | TDB |
period | 1256.225981349605 3.44 | 6.0945e-06 1.669e-08 | d yr |
n | .2865726432542336 | 1.3903e-09 | deg/d |
Q | 2.549775644966063 | 8.2467e-09 | au |
|
| | Orbit Determination Parameters
Additional Information
|